Regional Weather Roundup
Issued by NWS

Home | Current Version | Previous Version | Text Only | Print | Product List | Glossary Off
Versions: 1 2 3 4 5 6 7 8 9 10 11 12 13 14 15 16 17 18 19 20 21 22 23 24 25 26 27 28 29 30 31 32 33 34 35 36 37 38 39 40 41 42 43 44 45 46 47 48 49 50

189
ASUS44 KJAN 231303
RWRMS

MISSISSIPPI HOURLY WEATHER ROUNDUP
NATIONAL WEATHER SERVICE JACKSON MS
800 AM CDT SAT AUG 23 2014

NOTE: "FAIR: INDICATES FEW OR NO CLOUDS BELOW 12,000 FEET WITH NO
SIGNIFICANT WEATHER AND/OR OBSTRUCTIONS TO VISIBILITY.

MSZ001>002-007>008-010>013-018>021-025>028-034>036-231400-
NORTHWEST MISSISSIPPI

CITY           SKY/WX    TMP DP  RH WIND       PRES   REMARKS
CLARKSDALE     FAIR      77  75  94 CALM      30.04S
CLEVELAND      FAIR      76  74  95 CALM      30.03S
GREENWOOD      SUNNY     77  73  87 CALM      30.04S
GREENVILLE     SUNNY     77  73  87 CALM      30.03R
GRENADA        FAIR      73  72  94 CALM      30.04F
OLIVE BRANCH   SUNNY     77  77 100 S5        30.03S
OXFORD         FAIR      75  72  88 CALM      30.06S
TUNICA         SUNNY     77  73  88 S5        30.03S
$$

MSZ003>006-009-014>017-022>024-029>033-037>039-231400-
NORTHEAST MISSISSIPPI

CITY           SKY/WX    TMP DP  RH WIND       PRES   REMARKS
BELMONT        FAIR      77  73  86 CALM      30.06R
COLUMBUS AFB   SUNNY     76  72  86 CALM      30.04S
CORINTH        FAIR      75  72  88 MISG      30.04R
GOLDN TRIANGLE SUNNY     75  68  78 CALM      30.05S
STARKVILLE     FAIR      73  70  88 CALM      30.05S
TUPELO         SUNNY     78  71  79 W3        30.04S
$$

MSZ040-058-231400-
CENTRAL MISSISSIPPI

CITY           SKY/WX    TMP DP  RH WIND       PRES   REMARKS
JACKSON INTL   SUNNY     78  74  87 CALM      30.05R
JACKSON HAWKNS SUNNY     79  73  82 CALM      30.06R
MERIDIAN KEY   SUNNY     77  71  82 CALM      30.06R
MERIDIAN NAS   SUNNY     77  72  84 CALM      30.05S
RAYMOND        FAIR      73  68  83 CALM      30.06R
VICKSBURG      SUNNY     77  75  93 CALM      30.05R
$$

MSZ059>079-231400-
SOUTH MISSISSIPPI

CITY           SKY/WX    TMP DP  RH WIND       PRES   REMARKS
BROOKHAVEN     FAIR      77  75  94 CALM      30.08R
COLUMBIA       FAIR      79  75  89 MISG      30.04S
HATTIESBURG    SUNNY     81  74  79 CALM      30.05R
MCCOMB         SUNNY     79  74  84 N3        30.06R
NATCHEZ        SUNNY     77  73  88 S3        30.06R
PINE BELT      SUNNY     81  72  74 CALM      30.06S
$$

MSZ080>082-231400-
COASTAL MISSISSIPPI

CITY           SKY/WX    TMP DP  RH WIND       PRES   REMARKS
BAY ST LOUIS   SUNNY    N/A N/A N/A CALM      30.03R
BILOXI         SUNNY     83  75  77 VRB3      30.03R HX  90
PASCAGOULA     SUNNY     81  76  84 CALM      30.03R
GULFPORT       SUNNY     81  75  82 NW5       30.02R
$$



USA.gov is the U.S. government's official web portal to all federal, state and local government web resources and services.